Flag for Switzerland Weather past 2 weeks in Küsnacht, Zurich, Switzerland

Now
71 °F

Mild.


Feels Like: 75 °F
Forecast: 57 / 85 °F
Wind: 5 mph from Northwest

Location: Zurich Town / Ville.

Current Time: Aug 4, 2015 at 9:03:57 PM

Latest Report: Aug 4, 2015 at 8:00 PM


Visibility: N/A

Pressure: 30.04 "Hg

Humidity: 65%

Dew point: 59 °F

Location of KüsnachtLocation

Historic Weather in Küsnacht — Graph

°F

Küsnacht temperature yesterday

Maximum temperature yesterday: 86 °F (at 5:00 PM)
Minimum temperature yesterday: 60 °F (at 5:00 AM)
Average temperature yesterday: 73 °F

Past Weeks' High & Low Weather Summary

 TemperatureHumidityPressure
High92 °F (Jul 21, 5:00 PM)98% (Jul 27, 2:00 AM)30.12 "Hg (Jul 27, 2:00 AM)
Low51 °F (Jul 31, 6:00 AM)29% (Aug 3, 7:00 PM)29.66 "Hg (Jul 24, 5:00 PM)
Average67 °F66%29.94 "Hg
* Reported Jul 20 7:00 PM — Aug 4 7:00 PM, Küsnacht, Weather by CustomWeather, © 2015

Note: Actual official high and low records may vary slightly from our data, if they occured in-between our weather recording intervals... More about our weather records

Advertising

Küsnacht weather history for previous 24 hours

 ConditionsComfort  
Time TempWeatherWind HumidityBarometerVisibility
7:00 PM
Tue, Aug 4
73 °FMild.5 mph59%30.02 "HgN/A
6:00 PM72 °FMild.3 mph62%30.02 "HgN/A
5:00 PM72 °FMild.3 mph64%30.02 "HgN/A
4:00 PM71 °FMild.3 mph71%30.04 "HgN/A
3:00 PM70 °FMild.5 mph67%30.04 "HgN/A
2:00 PM70 °FMild.9 mph62%30.04 "HgN/A
1:00 PM73 °FMild.10 mph59%30.03 "HgN/A
12:00 PM75 °FMild.14 mph55%30.01 "HgN/A
11:00 AM74 °FMild.13 mph56%29.98 "HgN/A
10:00 AM72 °FMild.5 mph70%29.96 "HgN/A
9:00 AM70 °FMild.1 mph74%29.94 "HgN/A
8:00 AM68 °FMild.1 mph83%29.94 "HgN/A
7:00 AM66 °FMild.1 mph84%29.96 "HgN/A
5:00 AM65 °FMild.2 mph82%29.95 "HgN/A
4:00 AM66 °FMild.3 mph79%29.96 "HgN/A
3:00 AM67 °FMild.1 mph79%29.97 "HgN/A
2:00 AM69 °FMild.No wind75%29.96 "HgN/A
1:00 AM70 °FMild.1 mph72%29.96 "HgN/A
12:00 AM71 °FMild.2 mph68%29.96 "HgN/A
10:00 PM
Mon, Aug 3
74 °FMild.2 mph53%29.96 "HgN/A
9:00 PM75 °FMild.1 mph52%29.96 "HgN/A
Weather by CustomWeather, © 2015

See weather overviewHow to use our weather pages